Weather History for Thomson, GA

Change the Weather History Date:

Saturday, December 7, 2013

  Actual Average (KDBN) Record (KDBN)
Temperature  
Mean Temperature 57 °F -  
Max Temperature 68 °F 62 °F 82 °F (1951)
Min Temperature 46 °F 33 °F 14 °F (1937)
Degree Days  
Heating Degree Days 8    
Growing Degree Days 7 (Base 50)    
Moisture  
Dew Point 58 °F    
Average Humidity 99    
Maximum Humidity 100    
Minimum Humidity 92    
Precipitation  
Precipitation 0.00 in - - ()
Sea Level Pressure  
Sea Level Pressure 30.24 in    
Wind  
Wind Speed 5 mph (NNW)    
Max Wind Speed 13 mph    
Max Gust Speed 20 mph    
Visibility 8 miles    
Events      
Averages and records for this station are not official NWS values.
T = Trace of Precipitation, MM = Missing Value Source: NWS Daily Summary

Daily Weather History Graph

Daily Weather History Graph

Search for Another Location

Airport:

Trip Planner

Search our weather history database for the weather conditions in past years. The results will help you decide how hot, cold, wet, or windy it might be!

Date:

Astronomy

Dec. 07, 2013 Rise Set
Actual Time 7:21 AM EST 5:21 PM EST
Civil Twilight 6:53 AM EST 5:49 PM EST
Nautical Twilight 6:23 AM EST 6:20 PM EST
Astronomical Twilight 5:52 AM EST 6:50 PM EST
Moon 11:15 AM EST (12/7) 10:50 PM EST (12/7)
Length of Visible Light 10h 55m
Length of Day
10h 00m
Waxing Crescent, 29% of the Moon is Illuminated
Dec 7
Waxing Crescent
Dec 9
First Quarter
Dec 17
Full
Dec 25
Last Quarter
Jan 1
New

Hourly Weather History & Observations

Time (EST) Temp. Windchill Dew Point Humidity Pressure Visibility Wind Dir Wind Speed Gust Speed Precip Events Conditions
12:15 AM 67.6 °F - 65.5 °F 93% 30.11 in 10.0 mi SW 5.8 mph - N/A   Clear
12:35 AM 67.6 °F - 65.8 °F 94% 30.11 in 10.0 mi SSW 8.1 mph - N/A   Scattered Clouds
12:55 AM 67.6 °F - 66.2 °F 95% 30.11 in 10.0 mi SSW 6.9 mph - N/A   Mostly Cloudy
1:15 AM 68.0 °F - 66.6 °F 95% 30.10 in 10.0 mi SSW 6.9 mph - N/A   Overcast
1:35 AM 68.2 °F - 66.7 °F 95% 30.11 in 10.0 mi SSW 8.1 mph - N/A   Overcast
1:55 AM 68.4 °F - 67.1 °F 96% 30.12 in 10.0 mi WNW 8.1 mph - N/A   Overcast
2:15 AM 66.0 °F - 66.0 °F 100% 30.13 in 10.0 mi West 5.8 mph - N/A   Overcast
2:35 AM 65.5 °F - 65.5 °F 100% 30.12 in 7.0 mi WNW 3.5 mph - N/A   Overcast
2:55 AM 64.6 °F - 64.6 °F 100% 30.13 in 3.0 mi West 3.5 mph - N/A   Overcast
3:15 AM 64.4 °F - 64.4 °F 100% 30.13 in 4.0 mi Calm Calm - N/A   Overcast
3:35 AM 64.0 °F - 64.0 °F 100% 30.13 in 5.0 mi Calm Calm - N/A   Overcast
3:55 AM 64.0 °F - 64.0 °F 100% 30.13 in 10.0 mi Calm Calm - N/A   Overcast
4:15 AM 64.4 °F - 64.4 °F 100% 30.13 in 0.8 mi Calm Calm - N/A   Overcast
4:35 AM 64.4 °F - 64.4 °F 100% 30.13 in 7.0 mi Calm Calm - N/A   Overcast
4:55 AM 64.4 °F - 64.4 °F 100% 30.14 in 7.0 mi SSW 3.5 mph - N/A   Overcast
5:15 AM 64.4 °F - 64.4 °F 100% 30.13 in 10.0 mi Calm Calm - N/A   Overcast
5:35 AM 64.2 °F - 64.2 °F 100% 30.14 in 10.0 mi Calm Calm - N/A   Overcast
5:55 AM 64.0 °F - 64.0 °F 100% 30.15 in 10.0 mi SW 3.5 mph - N/A   Overcast
6:15 AM 64.0 °F - 64.0 °F 100% 30.16 in 10.0 mi Calm Calm - N/A   Overcast
6:35 AM 63.9 °F - 63.9 °F 100% 30.17 in 10.0 mi WSW 3.5 mph - N/A   Overcast
6:55 AM 63.7 °F - 63.7 °F 100% 30.18 in 10.0 mi Calm Calm - N/A   Overcast
7:15 AM 63.7 °F - 63.7 °F 100% 30.18 in 10.0 mi Calm Calm - N/A   Overcast
7:35 AM 63.5 °F - 63.5 °F 100% 30.19 in 10.0 mi West 4.6 mph - N/A   Overcast
7:55 AM 63.3 °F - 63.3 °F 100% 30.20 in 10.0 mi West 3.5 mph - N/A   Overcast
8:15 AM 63.0 °F - 63.0 °F 100% 30.21 in 10.0 mi West 3.5 mph - N/A   Overcast
8:35 AM 61.7 °F - 61.7 °F 100% 30.22 in 10.0 mi WNW 10.4 mph - N/A   Overcast
8:55 AM 61.0 °F - 61.0 °F 100% 30.23 in 10.0 mi West 3.5 mph - N/A   Overcast
9:15 AM 60.4 °F - 60.4 °F 100% 30.24 in 10.0 mi WNW 3.5 mph - N/A   Overcast
9:35 AM 60.3 °F - 60.3 °F 100% 30.25 in 10.0 mi West 3.5 mph - N/A   Overcast
9:55 AM 60.1 °F - 60.1 °F 100% 30.26 in 10.0 mi WNW 5.8 mph - N/A   Overcast
10:15 AM 60.1 °F - 60.1 °F 100% 30.26 in 10.0 mi WNW 4.6 mph - N/A   Overcast
10:35 AM 60.3 °F - 59.9 °F 99% 30.26 in 10.0 mi NW 5.8 mph - N/A   Overcast
10:55 AM 60.4 °F - 60.4 °F 100% 30.26 in 10.0 mi NW 4.6 mph - N/A   Overcast
11:15 AM 59.2 °F - 59.2 °F 100% 30.26 in 10.0 mi NW 5.8 mph - N/A   Overcast
11:35 AM 58.5 °F - 58.5 °F 100% 30.26 in 10.0 mi WNW 6.9 mph - N/A   Overcast
11:55 AM 58.3 °F - 58.3 °F 100% 30.26 in 10.0 mi West 6.9 mph - N/A   Overcast
12:15 PM 58.8 °F - 58.6 °F 99% 30.25 in 10.0 mi NW 3.5 mph - N/A   Overcast
12:35 PM 59.9 °F - 58.5 °F 95% 30.26 in 10.0 mi WNW 4.6 mph - N/A   Overcast
12:55 PM 60.4 °F - 58.8 °F 94% 30.25 in 10.0 mi WNW 3.5 mph - N/A   Overcast
1:15 PM 60.8 °F - 58.5 °F 92% 30.25 in 10.0 mi North 3.5 mph - N/A   Overcast
1:35 PM 60.6 °F - 58.6 °F 93% 30.24 in 10.0 mi WNW 3.5 mph - N/A   Overcast
1:55 PM 60.3 °F - 58.3 °F 93% 30.24 in 10.0 mi Calm Calm - N/A   Overcast
2:15 PM 60.3 °F - 58.3 °F 93% 30.24 in 10.0 mi Calm Calm - N/A   Overcast
2:35 PM 60.1 °F - 58.3 °F 94% 30.24 in 10.0 mi NW 3.5 mph - N/A   Overcast
2:55 PM 59.9 °F - 58.5 °F 95% 30.24 in 10.0 mi NNW 3.5 mph - N/A   Overcast
3:15 PM 59.2 °F - 57.9 °F 96% 30.25 in 10.0 mi WNW 3.5 mph - N/A   Overcast
3:35 PM 58.3 °F - 57.4 °F 97% 30.25 in 10.0 mi NW 3.5 mph - N/A   Overcast
3:55 PM 58.1 °F - 58.1 °F 100% 30.26 in 10.0 mi North - - N/A   Overcast
4:15 PM 57.9 °F - 57.9 °F 100% 30.26 in 10.0 mi Calm Calm - N/A   Overcast
4:35 PM 56.8 °F - 56.8 °F 100% 30.26 in 1.5 mi Calm Calm - N/A   Overcast
4:55 PM 56.8 °F - 56.8 °F 100% 30.27 in 2.0 mi NNE 9.2 mph - N/A   Overcast
5:15 PM 55.4 °F - 55.4 °F 100% 30.29 in 4.0 mi NNE 5.8 mph - N/A   Overcast
5:35 PM 53.8 °F - 53.8 °F 100% 30.29 in 4.0 mi NNE 8.1 mph - N/A   Overcast
5:55 PM 53.6 °F - 53.6 °F 100% 30.30 in 7.0 mi NE 4.6 mph - N/A   Overcast
6:15 PM 53.4 °F - 53.4 °F 100% 30.31 in 5.0 mi NE 5.8 mph - N/A   Overcast
6:35 PM 53.1 °F - 53.1 °F 100% 30.31 in 4.0 mi ENE 8.1 mph - N/A   Overcast
6:55 PM 52.9 °F - 52.9 °F 100% 30.32 in 5.0 mi NE 8.1 mph - N/A   Overcast
7:15 PM 52.7 °F - 52.7 °F 100% 30.32 in 7.0 mi ENE 9.2 mph 16.1 mph N/A   Overcast
7:35 PM 52.3 °F - 52.3 °F 100% 30.33 in 10.0 mi ENE 10.4 mph - N/A   Overcast
7:55 PM 51.8 °F - 51.8 °F 100% 30.34 in 10.0 mi ENE 6.9 mph - N/A   Overcast
8:15 PM 51.4 °F - 51.4 °F 100% 30.35 in 10.0 mi ENE 6.9 mph - N/A   Overcast
8:35 PM 50.4 °F - 50.4 °F 100% 30.35 in 7.0 mi NE 8.1 mph - N/A   Overcast
8:55 PM 50.0 °F - 50.0 °F 100% 30.35 in 5.0 mi NE 5.8 mph - N/A   Overcast
9:15 PM 50.0 °F - 50.0 °F 100% 30.35 in 4.0 mi ENE 8.1 mph - N/A   Overcast
9:35 PM 49.3 °F - 49.3 °F 100% 30.36 in 5.0 mi ENE 10.4 mph 17.3 mph N/A   Overcast
9:55 PM 48.9 °F - 48.9 °F 100% 30.37 in 10.0 mi East 11.5 mph 18.4 mph N/A   Overcast
10:15 PM 48.2 °F - 48.2 °F 100% 30.37 in 10.0 mi ENE 11.5 mph - N/A   Overcast
10:35 PM 47.5 °F - 47.5 °F 100% 30.38 in 4.0 mi ENE 12.7 mph 18.4 mph N/A   Overcast
10:55 PM 47.3 °F - 47.3 °F 100% 30.39 in 7.0 mi ENE 5.8 mph - N/A   Overcast
11:15 PM 47.1 °F - 47.1 °F 100% 30.39 in 10.0 mi ENE 10.4 mph 16.1 mph N/A   Overcast
11:35 PM 46.8 °F - 46.8 °F 100% 30.39 in 5.0 mi ENE 10.4 mph 17.3 mph N/A   Overcast
11:55 PM 46.4 °F 40.7 °F 46.4 °F 100% 30.38 in 2.5 mi East 12.7 mph 19.6 mph N/A   Overcast